Weather History for Lanai City, HI

Change the Weather History Date:

Monday, January 13, 2014

  Actual Average Record
Temperature  
Mean Temperature 74 °F -  
Max Temperature 81 °F 75 °F 82 °F (2003)
Min Temperature 64 °F 58 °F 55 °F (1980)
Cooling Degree Days 8    
Growing Degree Days 24 (Base 50)    
Moisture  
Dew Point 67 °F    
Average Humidity 91    
Maximum Humidity 100    
Minimum Humidity 58    
Precipitation  
Precipitation 0.17 in - - ()
Sea Level Pressure  
Sea Level Pressure 29.96 in    
Wind  
Wind Speed 4 mph (NW)    
Max Wind Speed 10 mph    
Max Gust Speed -    
Visibility 10 miles    
Events Rain    
Averages and records for this station are not official NWS values.
T = Trace of Precipitation, MM = Missing Value Source: NWS Daily Summary

Daily Weather History Graph

Daily Weather History Graph

Search for Another Location

Airport:

Trip Planner

Search our weather history database for the weather conditions in past years. The results will help you decide how hot, cold, wet, or windy it might be!

Date:

Astronomy

Jan. 13, 2014 Rise Set
Actual Time 7:06 AM HST 6:06 PM HST
Civil Twilight 6:43 AM HST 6:30 PM HST
Nautical Twilight 6:15 AM HST 6:57 PM HST
Astronomical Twilight 5:48 AM HST 7:24 PM HST
Moon 4:28 PM HST (1/13) 5:06 AM HST (1/13)
Length of Visible Light 11h 47m
Length of Day
10h 59m
Waxing Gibbous, 95% of the Moon is Illuminated
Jan 13
Waxing Gibbous
Jan 15
Full
Jan 23
Last Quarter
Jan 30
New
Feb 6
First Quarter

Hourly Weather History & Observations

Time (HST) Temp. Heat Index Dew Point Humidity Pressure Visibility Wind Dir Wind Speed Gust Speed Precip Events Conditions
12:56 AM 68.0 °F - 68.0 °F 100% 29.96 in 10.0 mi NNE 6.9 mph - N/A   Clear
1:56 AM 68.0 °F - 68.0 °F 100% 29.94 in 10.0 mi NNE 5.8 mph - N/A   Clear
2:56 AM 66.9 °F - 66.9 °F 100% 29.94 in 10.0 mi NNE 3.5 mph - N/A   Clear
3:28 AM 68.0 °F - 68.0 °F 100% 30.00 in 10.0 mi NW 5.8 mph - N/A   Scattered Clouds
3:38 AM 68.0 °F - 68.0 °F 100% 30.00 in 10.0 mi NW 4.6 mph - N/A   Mostly Cloudy
3:47 AM 68.0 °F - 68.0 °F 100% 30.00 in 10.0 mi NNW 3.5 mph - N/A   Scattered Clouds
3:56 AM 68.0 °F - 68.0 °F 100% 29.94 in 10.0 mi Calm Calm - N/A   Overcast
4:56 AM 66.9 °F - 66.9 °F 100% 29.96 in 10.0 mi North 3.5 mph - 0.00 in Rain Light Rain
5:56 AM 68.0 °F - 68.0 °F 100% 29.96 in 10.0 mi NNE 3.5 mph - 0.00 in   Mostly Cloudy
6:34 AM 66.2 °F - 66.2 °F 100% 30.02 in 10.0 mi NW 3.5 mph - N/A   Mostly Cloudy
6:47 AM 68.0 °F - 68.0 °F 100% 30.02 in 10.0 mi Calm Calm - N/A   Mostly Cloudy
6:56 AM 68.0 °F - 68.0 °F 100% 29.97 in 10.0 mi Calm Calm - N/A   Overcast
7:15 AM 68.0 °F - 68.0 °F 100% 30.02 in 9.0 mi Calm Calm - N/A   Scattered Clouds
7:56 AM 70.0 °F - 70.0 °F 100% 29.98 in 10.0 mi Calm Calm - N/A   Clear
8:56 AM 73.9 °F - 66.9 °F 79% 29.98 in 10.0 mi Calm Calm - N/A   Clear
9:56 AM 79.9 °F - 68.0 °F 67% 29.98 in 10.0 mi NNW 4.6 mph - N/A   Partly Cloudy
10:56 AM 77.0 °F - 68.0 °F 74% 29.97 in 9.0 mi West 6.9 mph - N/A   Clear
11:56 AM 79.9 °F - 65.8 °F 62% 29.95 in 9.0 mi WNW 5.8 mph - N/A   Partly Cloudy
12:56 PM 81.0 °F 82.7 °F 64.9 °F 58% 29.91 in 10.0 mi West 6.9 mph - N/A   Clear
1:56 PM 79.9 °F - 65.8 °F 62% 29.89 in 10.0 mi West 8.1 mph - N/A   Clear
2:56 PM 79.0 °F - 64.9 °F 62% 29.88 in 10.0 mi West 5.8 mph - N/A   Clear
3:56 PM 79.0 °F - 63.9 °F 60% 29.88 in 10.0 mi WNW 6.9 mph - N/A   Clear
4:56 PM 75.9 °F - 65.8 °F 71% 29.89 in 10.0 mi WNW 4.6 mph - N/A   Partly Cloudy
5:56 PM 72.0 °F - 68.0 °F 87% 29.91 in 10.0 mi West 3.5 mph - N/A   Mostly Cloudy
6:56 PM 68.9 °F - 68.9 °F 100% 29.92 in 10.0 mi Calm Calm - N/A   Scattered Clouds
7:48 PM 69.8 °F - 69.8 °F 100% 29.99 in 10.0 mi Calm Calm - N/A   Scattered Clouds
7:56 PM 68.9 °F - 68.9 °F 100% 29.94 in 10.0 mi Calm Calm - N/A   Partly Cloudy
8:56 PM 66.9 °F - 66.9 °F 100% 29.93 in 10.0 mi Calm Calm - N/A   Clear
9:22 PM 66.2 °F - 66.2 °F 100% 29.99 in 10.0 mi Calm Calm - N/A   Partly Cloudy
9:48 PM 66.2 °F - 66.2 °F 100% 29.99 in 10.0 mi Calm Calm - N/A   Mostly Cloudy
9:56 PM 66.9 °F - 66.9 °F 100% 29.93 in 10.0 mi Calm Calm - N/A   Mostly Cloudy
10:56 PM 66.2 °F - 66.2 °F 100% 29.99 in 10.0 mi Calm Calm - N/A   Mostly Cloudy
11:07 PM 66.2 °F - 66.2 °F 100% 29.98 in 10.0 mi East 3.5 mph - N/A   Mostly Cloudy
11:17 PM 68.0 °F - 68.0 °F 100% 29.99 in 2.5 mi WNW 10.4 mph - 0.00 in Rain Rain
11:34 PM 66.2 °F - 66.2 °F 100% 29.99 in 9.0 mi North 9.2 mph - 0.16 in Rain Light Rain
11:56 PM 64.9 °F - 64.9 °F 100% 29.92 in 10.0 mi Calm Calm - 0.17 in Rain Light Rain